[[{"header":{"parameterUnit":"m.s-1","parameterCategory":1,"la1":30.2992,"la2":30.254,"lo1":-89.0895,"lo2":-89.0443,"dy":0.0025,"dx":0.0025,"nx":19,"ny":19,"refTime":"2026-05-08T21:00:00:Z","depth":0,"parameterNumber":2,"parameterNumberName":"U-component_of_WINDS"},"data":[0,0,0,-1.4402,-1.4402,-1.4388,-1.4388,-1.4377,-1.4377,0,0,0,0,0,0,0,0,0,0,0,-1.4411,-1.4411,-1.4402,-1.4402,-1.4388,-1.4388,-1.4377,-1.4377,0,0,0,0,0,0,0,0,0,0,0,-1.4411,-1.4411,-1.4411,-1.4402,-1.4388,-1.4387,-1.4377,-1.4386,0,0,0,0,0,0,0,0,0,0,-1.4398,-1.441,-1.4411,-1.4411,-1.4402,-1.4388,-1.4387,-1.4386,-1.4385,-1.4387,0,-1.439,0,-1.4383,-1.4377,-1.4377,0,0,0,-1.4399,-1.441,-1.4403,-1.4411,-1.4402,-1.4388,-1.4393,-1.4385,-1.4384,-1.4386,-1.4389,-1.4389,-1.4383,-1.4377,-1.4377,-1.4397,-1.4397,0,0,-1.44,-1.441,-1.4403,-1.4402,-1.4404,-1.4394,-1.4393,-1.4385,-1.4389,-1.4389,-1.4388,-1.4383,-1.4377,-1.4377,-1.4397,-1.4397,0,0,0,-1.4404,-1.4411,-1.4403,-1.4403,-1.44,-1.4393,-1.4392,-1.4389,-1.4386,-1.4388,-1.4383,-1.4377,-1.4377,-1.4397,-1.4397,-1.4417,0,0,0,-1.4404,-1.4414,-1.4404,-1.441,-1.44,-1.4394,-1.4397,-1.4387,-1.4385,-1.4383,-1.4377,-1.4377,-1.4396,-1.4397,-1.4416,-1.4424,0,0,0,-1.441,-1.4414,-1.4413,-1.4411,-1.4405,-1.4394,-1.439,-1.4386,-1.4382,-1.4377,-1.4377,-1.4396,-1.4397,-1.4415,-1.4423,-1.4431,0,0,0,-1.442,-1.4433,-1.4414,-1.4427,-1.4405,-1.4407,-1.439,-1.4391,-1.4389,-1.4377,-1.4396,-1.4397,-1.4414,-1.4422,-1.443,-1.4439,-1.4444,0,0,-1.4442,-1.4436,-1.4442,-1.4425,-1.4432,-1.4408,-1.4419,-1.4408,-1.4399,-1.4398,-1.4399,-1.4416,-1.4423,-1.4431,-1.4472,-1.4477,0,0,0,-1.4453,-1.4458,-1.4457,-1.4456,-1.4447,-1.444,-1.4427,-1.4423,-1.4422,-1.44,-1.4422,-1.4426,-1.443,-1.4434,-1.4438,-1.444,-1.44,-1.44,-1.4399,-1.4499,-1.4485,-1.4495,-1.448,-1.4479,-1.4464,-1.4462,-1.4454,-1.4442,-1.4448,-1.4447,-1.4473,-1.4478,-1.4481,-1.4484,-1.4452,-1.4452,-1.4452,-1.4452,-1.4529,-1.4533,-1.4516,-1.4519,-1.4505,-1.4508,-1.4495,-1.4486,-1.4487,-1.4473,-1.4476,-1.4461,-1.4486,-1.4487,-1.4454,-1.4453,-1.4453,-1.4453,-1.4453,-1.4556,-1.4555,-1.455,-1.4545,-1.4544,-1.4529,-1.4531,-1.4519,-1.4508,-1.4511,-1.4508,-1.4508,-1.4504,-1.4511,-1.4511,-1.4511,-1.4511,-1.4511,-1.4511,-1.4585,-1.4578,-1.458,-1.4572,-1.4569,-1.4564,-1.455,-1.4548,-1.4541,-1.4533,-1.4532,-1.4519,-1.4491,-1.4483,-1.4513,-1.4512,-1.4512,-1.4512,-1.4512,-1.4616,-1.4607,-1.461,-1.4607,-1.4597,-1.4596,-1.4581,-1.4577,-1.4573,-1.4574,-1.456,-1.4542,-1.4535,-1.4532,-1.4525,-1.4564,-1.4564,-1.4564,-1.4564,-1.4638,-1.4633,-1.4633,-1.4629,-1.4624,-1.4611,-1.4615,-1.4605,-1.4593,-1.459,-1.4583,-1.4574,-1.4572,-1.4566,-1.4562,-1.4556,-1.4601,-1.4601,-1.4601,-1.4656,-1.465,-1.4655,-1.4643,-1.4634,-1.4627,-1.463,-1.4627,-1.4612,-1.4602,-1.4587,-1.4585,-1.457,-1.4567,-1.4555,-1.4549,-1.4537,0,0]},{"header":{"parameterUnit":"m.s-1","parameterCategory":1,"la1":30.2992,"la2":30.254,"lo1":-89.0895,"lo2":-89.0443,"dy":0.0025,"dx":0.0025,"nx":19,"ny":19,"refTime":"2026-05-08T21:00:00:Z","depth":0,"parameterNumber":3,"parameterNumberName":"V-component_of_WINDS"},"data":[0,0,0,4.0359,4.0363,4.0556,4.0556,4.0797,4.0799,0,0,0,0,0,0,0,0,0,0,0,4.0301,4.0302,4.0358,4.0363,4.0555,4.0556,4.0797,4.0799,0,0,0,0,0,0,0,0,0,0,0,4.03,4.0302,4.0304,4.0364,4.0555,4.0556,4.0796,4.0652,0,0,0,0,0,0,0,0,0,0,4.0466,4.0412,4.0301,4.0304,4.0365,4.0555,4.0557,4.0646,4.0661,4.0708,0,4.0752,0,4.0779,4.0815,4.0816,0,0,0,4.0363,4.0399,4.0452,4.0304,4.0367,4.0555,4.0469,4.0654,4.0672,4.0729,4.0755,4.0764,4.0783,4.0817,4.0818,4.1093,4.1094,0,0,4.0353,4.0334,4.0439,4.0463,4.0436,4.0463,4.0475,4.0665,4.0692,4.0756,4.077,4.0787,4.0818,4.082,4.1092,4.1093,0,0,0,4.0322,4.0327,4.0375,4.0453,4.0489,4.0468,4.0482,4.0683,4.07,4.0773,4.079,4.082,4.0823,4.109,4.1092,4.114,0,0,0,4.0316,4.0309,4.0371,4.0361,4.0485,4.0589,4.0496,4.0687,4.0709,4.0789,4.082,4.0825,4.1089,4.1091,4.1135,4.1165,0,0,0,4.0288,4.0306,4.0333,4.036,4.0442,4.0586,4.0615,4.0693,4.072,4.0816,4.0826,4.1088,4.1091,4.1132,4.1159,4.1234,0,0,0,4.0253,4.0371,4.0334,4.0472,4.0441,4.0614,4.0614,4.0743,4.0831,4.0821,4.1089,4.1092,4.113,4.1155,4.123,4.1295,4.132,0,0,4.0392,4.0387,4.047,4.0442,4.0618,4.0586,4.0768,4.0865,4.0889,4.1023,4.103,4.1137,4.1159,4.1233,4.1463,4.1483,0,0,0,4.0508,4.0567,4.0618,4.0702,4.0779,4.0848,4.0919,4.0954,4.1069,4.0955,4.1183,4.1197,4.1241,4.1273,4.129,4.133,4.1106,4.1105,4.1105,4.0679,4.0706,4.0844,4.0893,4.0974,4.1046,4.1113,4.1173,4.1174,4.1228,4.1269,4.1405,4.1442,4.1455,4.1496,4.1303,4.1303,4.1303,4.1304,4.0887,4.0976,4.0975,4.111,4.1136,4.1248,4.132,4.1317,4.1425,4.1377,4.1417,4.1364,4.1476,4.1513,4.1307,4.1307,4.1306,4.1306,4.1306,4.1004,4.1052,4.1093,4.1217,4.1308,4.1352,4.1456,4.1474,4.1492,4.1532,4.1578,4.1577,4.158,4.1552,4.1552,4.1553,4.1553,4.1553,4.1554,4.1111,4.1156,4.1243,4.1334,4.139,4.1465,4.1537,4.1591,4.1657,4.1662,4.1663,4.1659,4.1481,4.1438,4.1561,4.156,4.1559,4.1558,4.1558,4.1317,4.1273,4.1406,4.1463,4.157,4.166,4.1681,4.1791,4.1838,4.1889,4.1876,4.1741,4.1737,4.1724,4.1688,4.1869,4.1869,4.1869,4.1869,4.1418,4.1417,4.1558,4.1646,4.1734,4.1767,4.1915,4.197,4.202,4.2051,4.2026,4.1979,4.1965,4.197,4.1951,4.1918,4.2154,4.2154,4.2155,4.1547,4.1555,4.168,4.1729,4.1814,4.1886,4.2026,4.2126,4.2172,4.2166,4.2075,4.2063,4.1987,4.1961,4.1956,4.1927,4.1866,0,0]}]]